Вернуться в каталог

TJS-24

АктивенНаукаGEO
NORAD 69235·PAYLOAD·🇨🇳 China

Запущен May 26, 2026 с Wenchang Space Launch Site

Loading…

TLE

СвежийSource: Space-Track

Эпоха: Sep 14, 2026, 15:33 UTC

1 69235U 26116A   26257.64844603 -.00000239  00000-0  00000-0 0  9993
2 69235   0.2339  88.8246 0001339 161.9953  66.5428  1.00269548  1120

Отслеживайте TJS-24 в реальном времени с AllMySat

Download on the App Store